Regional Weather Roundup
Issued by NWS Goodland, KS

Home | Current Version | Previous Version | Graphics & Text | Print | Product List | Glossary On
Versions: 1 2 3 4 5 6 7 8 9 10 11 12 13 14 15 16 17 18 19 20 21 22 23 24 25 26 27 28 29 30 31 32 33 34 35 36 37 38 39 40 41 42 43 44 45 46 47 48 49 50
633
ASUS43 KGLD 292208
RWRGLD

GOODLAND FORECAST AREA HOURLY WEATHER ROUNDUP
NATIONAL WEATHER SERVICE GOODLAND KS
400 PM MDT WED MAR 29 2017

...OFFICIAL OBSERVATIONS...

CITY           SKY/WX    TMP DP  RH WIND       PRES   REMARKS
GOODLAND KS    CLOUDY    43  39  86 N22G29    29.91F
HILL CITY KS   LGT RAIN  42  40  92 N28G38    29.85R FOG
IMPERIAL NEB   CLOUDY    46  38  73 NE16      29.95R
MCCOOK NEB     LGT RAIN  45  42  89 N23       29.90S
AKRON CO       CLOUDY    49  35  58 N20G28    29.96F
BURLINGTON CO  CLOUDY    44  38  79 N18       29.94S
LIMON CO       CLOUDY    48  36  63 N23       29.97F
$$

...UNOFFICIAL OBSERVATIONS...

CITY           SKY/WX    TMP DP  RH WIND       PRES   REMARKS
NORTON KS      LGT RAIN  39  34  81 N21G26    29.85
OBERLIN KS     CLOUDY    43  41  93 N18G28    29.93F FOG
SHARON SPRINGS   N/A     43  41  93 N16G25      N/A
TRENTON NEB      N/A     47  32  56 N12         N/A
KIT CARSON CO    N/A     44  38  78 MISG        N/A
YUMA CO        CLOUDY    45  36  70 N16       29.96S
$$




USA.gov is the U.S. government's official web portal to all federal, state and local government web resources and services.